Andravida, Greece

10:42 AM EET on December 13, 2017 (GMT +0200)
Andravida Air Base

Weather History for LGAD - November, 2013

Change the Weather History Date:

Sunday, November 17, 2013

  Actual Average Record
Temperature  
Mean Temperature 59 °F -  
Max Temperature 67 °F 60 °F 75 °F (2015)
Min Temperature 50 °F 45 °F 41 °F (2006)
Degree Days  
Heating Degree Days 6    
Growing Degree Days 9 (Base 50)    
Moisture  
Dew Point 48 °F    
Average Humidity 66    
Maximum Humidity 88    
Minimum Humidity 40    
Precipitation  
Precipitation 0.00 in - - ()
Sea Level Pressure  
Sea Level Pressure 30.11 in    
Wind  
Wind Speed 2 mph ()    
Max Wind Speed 9 mph    
Max Gust Speed -    
Visibility 6.2 miles    
Events      
Averages and records for this station are not official NWS values.
T = Trace of Precipitation, MM = Missing Value Source: Averaged Metar Reports

Daily Weather History Graph

Daily Weather History Graph

Search for Another Location

Airport or City:

Trip Planner

Search our weather history database for the weather conditions in past years. The results will help you decide how hot, cold, wet, or windy it might be!

Date:

Astronomy

Nov. 17, 2013 Rise Set
Actual Time 7:17 AM EET 5:21 PM EET
Civil Twilight 6:49 AM EET 5:50 PM EET
Nautical Twilight 6:17 AM EET 6:21 PM EET
Astronomical Twilight 5:46 AM EET 6:53 PM EET
Moon 5:25 PM EET (11/17) 6:54 AM EET (11/17)
Length of Visible Light 11h 00m
Length of Day
10h 04m
Full, 100% of the Moon is Illuminated
Nov 17
Full
Nov 17
Full
Nov 25
Last Quarter
Dec 3
New
Dec 9
First Quarter

Hourly Weather History & Observations

Time (EET) Temp. Dew Point Humidity Pressure Visibility Wind Dir Wind Speed Gust Speed Precip Events Conditions
1:50 AM 57.2 °F 51.8 °F 82% 30.12 in 6.2 mi Calm Calm - N/A   Mostly Cloudy
2:00 AM 57 °F 52 °F 79% 30.13 in 6 mi Calm Calm - -   Scattered Clouds
4:20 AM 55.4 °F 51.8 °F 88% 30.09 in 6.2 mi Calm Calm - N/A   Mostly Cloudy
4:50 AM 55.4 °F 50.0 °F 82% 30.09 in 6.2 mi NNE 4.6 mph - N/A   Mostly Cloudy
5:20 AM 55.4 °F 50.0 °F 82% 30.09 in 6.2 mi Calm Calm - N/A   Mostly Cloudy
6:20 AM 53.6 °F 46.4 °F 77% 30.09 in 6.2 mi Calm Calm - N/A   Scattered Clouds
6:50 AM 53.6 °F 46.4 °F 77% 30.12 in 6.2 mi Calm Calm - N/A   Scattered Clouds
7:20 AM 51.8 °F 46.4 °F 82% 30.12 in 6.2 mi Calm Calm - N/A   Scattered Clouds
7:50 AM 51.8 °F 46.4 °F 82% 30.12 in 6.2 mi Calm Calm - N/A   Scattered Clouds
8:00 AM 53 °F 47 °F 74% 30.14 in 6 mi Calm Calm - -   Scattered Clouds
8:20 AM 55.4 °F 48.2 °F 77% 30.12 in 6.2 mi Calm Calm - N/A   Scattered Clouds
8:50 AM 57.2 °F 50.0 °F 77% 30.15 in 6.2 mi Calm Calm - N/A   Scattered Clouds
9:20 AM 57.2 °F 50.0 °F 77% 30.15 in 6.2 mi Calm Calm - N/A   Scattered Clouds
9:50 AM 60.8 °F 46.4 °F 59% 30.15 in 6.2 mi NE 4.6 mph - N/A   Scattered Clouds
10:20 AM 60.8 °F 46.4 °F 59% 30.15 in 6.2 mi NE 4.6 mph - N/A   Scattered Clouds
10:50 AM 64.4 °F 48.2 °F 56% 30.15 in 6.2 mi Calm Calm - N/A   Partly Cloudy
11:20 AM 64.4 °F 48.2 °F 56% 30.15 in 6.2 mi Calm Calm - N/A   Partly Cloudy
11:50 AM 66.2 °F 50.0 °F 56% 30.12 in 6.2 mi Calm Calm - N/A   Partly Cloudy
12:20 PM 66.2 °F 50.0 °F 56% 30.12 in 6.2 mi Calm Calm - N/A   Partly Cloudy
12:50 PM 68.0 °F 48.2 °F 49% 30.12 in 6.2 mi Calm Calm - N/A   Partly Cloudy
1:20 PM 68.0 °F 48.2 °F 49% 30.12 in 6.2 mi Calm Calm - N/A   Partly Cloudy
1:50 PM 66.2 °F 48.2 °F 52% 30.09 in 6.2 mi North 4.6 mph - N/A   Partly Cloudy
2:00 PM 67 °F 48 °F 40% 30.11 in 6 mi North 4.6 mph - -   Scattered Clouds
2:20 PM 66.2 °F 48.2 °F 52% 30.09 in 6.2 mi North 4.6 mph - N/A   Partly Cloudy
2:50 PM 66.2 °F 46.4 °F 49% 30.09 in 6.2 mi North 9.2 mph - N/A   Partly Cloudy
3:20 PM 66.2 °F 46.4 °F 49% 30.09 in 6.2 mi North 9.2 mph - N/A   Partly Cloudy
3:50 PM 64.4 °F 46.4 °F 52% 30.09 in 6.2 mi North 6.9 mph - N/A   Partly Cloudy
4:20 PM 64.4 °F 46.4 °F 52% 30.09 in 6.2 mi North 6.9 mph - N/A   Partly Cloudy
4:50 PM 62.6 °F 48.2 °F 59% 30.09 in 6.2 mi North 6.9 mph - N/A   Partly Cloudy
5:20 PM 62.6 °F 48.2 °F 59% 30.09 in 6.2 mi North 6.9 mph - N/A   Partly Cloudy
5:50 PM 59.0 °F 48.2 °F 67% 30.09 in 6.2 mi North 6.9 mph - N/A   Partly Cloudy
7:20 PM 59.0 °F 46.4 °F 63% 30.09 in 6.2 mi NNE 9.2 mph - N/A   Partly Cloudy
7:50 PM 57.2 °F 46.4 °F 67% 30.09 in 6.2 mi NNE 9.2 mph - N/A   Partly Cloudy
8:00 PM 58 °F 46 °F 55% 30.11 in 6 mi NNE 9.2 mph - -   Scattered Clouds
8:20 PM 57.2 °F 46.4 °F 67% 30.09 in 6.2 mi NNE 9.2 mph - N/A   Partly Cloudy
8:50 PM 57.2 °F 46.4 °F 67% 30.09 in 6.2 mi North 6.9 mph - N/A   Partly Cloudy
9:20 PM 57.2 °F 46.4 °F 67% 30.09 in 6.2 mi North 6.9 mph - N/A   Partly Cloudy
9:50 PM 55.4 °F 46.4 °F 72% 30.09 in 6.2 mi Calm Calm - N/A   Partly Cloudy
10:20 PM 55.4 °F 46.4 °F 72% 30.09 in 6.2 mi Calm Calm - N/A   Partly Cloudy
10:50 PM 51.8 °F 44.6 °F 76% 30.09 in 6.2 mi Calm Calm - N/A   Partly Cloudy
11:20 PM 51.8 °F 44.6 °F 76% 30.09 in 6.2 mi Calm Calm - N/A   Partly Cloudy
11:50 PM 50.0 °F 46.4 °F 87% 30.09 in 6.2 mi Calm Calm - N/A   Partly Cloudy